Regional Weather Roundup
Issued by NWS

Home | Current Version | Previous Version | Text Only | Print | Product List | Glossary On
Versions: 1 2 3 4 5 6 7 8 9 10 11 12 13 14 15 16 17 18 19 20 21 22 23 24 25 26 27 28 29 30 31 32 33 34 35 36 37 38 39 40 41 42 43 44 45 46 47 48 49 50
000
ASUS43 KLMK 211910
RWRKY
SDFRWRKY ALL
KENTUCKY REGIONAL WEATHER ROUNDUP
NATIONAL WEATHER SERVICE LOUISVILLE KY
200 PM EST TUE NOV 21 2017

NOTE "FAIR" INDICATES FEW OR NO CLOUDS BELOW 12,000 FEET
WITH NO SIGNIFICANT WEATHER AND/OR OBSTRUCTIONS TO VISIBILITY.

KYZ001>023-026-027-061>063-070>075-212000-
WESTERN AND SOUTH CENTRAL KENTUCKY

CITY           SKY/WX    TMP DP  RH WIND       PRES   REMARKS
PADUCAH        SUNNY     58  33  39 SW8       29.97F
HENDERSON      SUNNY     58  37  45 SW14      29.96F
OWENSBORO      SUNNY     57  35  43 SW16      29.96F
HOPKINSVILLE   MOSUNNY   57  31  37 SW8       30.00F
BOWLING GREEN  SUNNY     57  30  35 SW13      30.02S
GLASGOW        SUNNY     59  28  31 SW12      30.01R
$$

KYZ024-025-028>034-038-045-046-053-212000-
NORTH CENTRAL KENTUCKY

CITY           SKY/WX    TMP DP  RH WIND       PRES   REMARKS
LOUISVILLE/SDF PTSUNNY   58  30  34 SW17G24   29.96F
LOUISVILLE/LOU SUNNY     58  32  37 SW15      29.96F
FORT KNOX      SUNNY     57  29  35 SW13      29.96S
$$

KYZ035>037-039>044-047>052-055>060-089>105-212000-
NORTHEAST KENTUCKY

CITY           SKY/WX    TMP DP  RH WIND       PRES   REMARKS
LEXINGTON      SUNNY     58  31  35 SW17G26   29.97F
COVINGTON      PTSUNNY   55  32  41 SW12G24   29.92F
FRANKFORT      SUNNY     58  29  33 SW12G22   29.95F
$$

KYZ054-064>069-076>088-106>120-212000-
SOUTHEAST KENTUCKY

CITY           SKY/WX    TMP DP  RH WIND       PRES   REMARKS
JACKSON        MOSUNNY   61  41  47 MISG      29.99F
LONDON         PTSUNNY   62  43  49 SW15G28   30.00F
SOMERSET       SUNNY     61  37  41 W16G22    30.01F
MIDDLESBORO    CLOUDY    57  44  62 S9        30.04F
MONTICELLO     CLEAR     63  43  48 W23G31    30.01F
$$





USA.gov is the U.S. government's official web portal to all federal, state and local government web resources and services.